Location: Unspecified
(58.7730°N, 5.8460°E)
Time: 14:09:02
(UTC+02:00)

Resurs 1-4 Rocket - Visible Passes

Search period start: 28 March 2017 00:00
Search period end: 07 April 2017 00:00
Orbit: 800 x 814 km, 98.5° (Epoch: 26 March)

Date Brightness Start Highest point End Pass type
(mag) Time Alt. Az. Time Alt. Az. Time Alt. Az.
28 Mar 4.5 02:29:15 10° NE 02:31:53 14° E 02:34:21 10° ESE visible
28 Mar 2.5 04:07:38 10° NNE 04:12:54 60° ESE 04:15:26 30° S visible
28 Mar 2.9 05:47:47 10° N 05:52:34 35° NW 05:56:31 14° WSW visible
29 Mar 3.0 03:43:10 10° NNE 03:48:11 41° E 03:50:42 25° SSE visible
29 Mar 2.5 05:23:05 10° N 05:28:09 48° WNW 05:31:47 18° SW visible
30 Mar 3.6 03:18:48 10° NNE 03:23:23 29° E 03:25:58 20° SE visible
30 Mar 2.1 04:58:26 10° NNE 05:03:41 67° WNW 05:07:03 23° SW visible
31 Mar 4.1 02:54:36 10° NE 02:58:30 20° E 03:01:13 14° ESE visible
31 Mar 2.1 04:33:49 10° NNE 04:39:09 87° ESE 04:42:19 25° SSW visible
31 Mar 3.3 06:14:11 10° N 06:18:30 26° NW 06:22:47 10° WSW visible
01 Apr 4.5 02:30:46 10° NE 02:33:32 14° E 02:36:17 10° ESE visible
01 Apr 2.4 04:09:16 10° NNE 04:14:31 61° ESE 04:17:34 25° S visible
01 Apr 2.9 05:49:25 10° N 05:54:10 34° NW 05:58:40 11° WSW visible
02 Apr 3.0 03:44:46 10° NNE 03:49:49 43° E 03:52:49 22° SSE visible
02 Apr 2.5 05:24:43 10° N 05:29:46 47° WNW 05:33:55 15° SW visible
03 Apr 3.6 03:20:24 10° NNE 03:25:01 30° E 03:28:05 18° SE visible
03 Apr 2.2 05:00:03 10° NNE 05:05:18 66° WNW 05:09:10 18° SW visible
04 Apr 4.1 02:56:11 10° NE 03:00:09 21° E 03:03:21 13° SE visible
04 Apr 2.1 04:35:26 10° NNE 04:40:45 89° ESE 04:44:26 20° SSW visible
05 Apr 4.5 02:32:19 10° NE 02:35:11 15° E 02:38:03 10° ESE visible
05 Apr 2.4 04:10:52 10° NNE 04:16:08 63° ESE 04:19:41 21° S visible
05 Apr 3.0 05:51:04 10° N 05:55:45 34° NW 06:00:27 10° WSW visible
06 Apr 3.0 03:46:23 10° NNE 03:51:26 44° E 03:54:57 19° SSE visible
06 Apr 2.6 05:26:21 10° N 05:31:22 46° WNW 05:36:02 12° SW visible
